Location: Newark
(43.9494°N, 6.8108°E)
Time: 10:08:57
(UTC+00:00)

A-11 Canister half - Pass Details

Date: 25 October 2019
Orbit: 1514 x 1686 km, 47.2° (Epoch: 13 November)

Event Time Altitude Azimuth Distance (km) Brightness Sun altitude
Rises 21:23:48 0° 180° (S) 4,925 - -50.1°
Reaches altitude 10° 21:28:24 10° 162° (SSE) 3,934 - -50.7°
Maximum altitude 21:34:24 18° 125° (SE) 3,334 - -51.4°
Drops below altitude 10° 21:40:21 10° 88° (E) 3,894 - -52.1°
Sets 21:44:48 0° 71° (ENE) 4,857 - -52.6°
